This demonstration page uses our WeatherBlox Daily Observations layout. Learn more.

Left ArrowRight Arrow

Hourly Observations for May 18, 2016

Temp ( °F °C ) Dew Point ( °F °C ) Humidity (%) Winds ( mph kmh ) Pressure ( in mb ) Visibility ( mi km ) Precip ( " mm )
12:51 am 00:51 Mostly Cloudy with Light Rain 63 17.2 49 9.4 60 60 E 14 22 29.84 1011 10 16 0.00 0.03
1:51 am 01:51 Mostly Cloudy with Light Rain 60 15.6 51 10.6 72 72 E 10 17 29.85 1011 10 16 0.00 0.03
2:51 am 02:51 Mostly Cloudy with Light Rain 60 15.6 50 10 70 70 ESE 10 17 29.85 1011 10 16 0.00 0.03
3:51 am 03:51 Partly Cloudy 59 15 51 10.6 75 75 ESE 9 15 29.85 1011 10 16 0.00 0.03
4:51 am 04:51 Mostly Cloudy 60 15.6 51 10.6 72 72 ESE 9 15 29.86 1011 10 16 0.00 0.00
5:51 am 05:51 Mostly Cloudy 59 15 52 11.1 78 78 SE 12 19 29.86 1011 10 16 0.00 0.00
6:51 am 06:51 Mostly Cloudy 61 16.1 52 11.1 72 72 SE 8 13 29.89 1012 10 16 0.00 0.00
7:51 am 07:51 Cloudy 64 17.8 49 9.4 58 58 S 8 13 29.90 1013 10 16 0.00 0.00
8:51 am 08:51 Mostly Cloudy 69 20.6 47 8.3 45 45 ESE 15 24 29.89 1012 10 16 0.00 0.00
9:51 am 09:51 Mostly Cloudy 70 21.1 47 8.3 44 44 S 9 15 29.88 1012 10 16 0.00 0.00
10:51 am 10:51 Sunny 73 22.8 46 7.8 38 38 ESE 8 13 29.85 1011 10 16 0.00 0.00
11:51 am 11:51 Sunny 77 25 44 6.7 31 31 VRB 6 9 29.82 1010 10 16 0.00 0.00
12:25 pm 12:25 Partly Cloudy with Nearby Thunderstorms 76 24.4 40 4.4 27 27 VRB 3 6 29.74 1007 10 16 0.00 0.00
12:42 pm 12:42 Sunny 76 24.4 41 5 29 29 WSW 9 15 29.74 1007 10 16 0.00 0.00
12:51 pm 12:51 Partly Cloudy 76 24.4 41 5 29 29 W 7 11 29.78 1009 10 16 0.00 0.00
1:11 pm 13:11 Windy with Storms Likely 66 18.9 47 8.3 50 50 W 29 46 29.83 1010 3 5 0.00 0.03
1:13 pm 13:13 Cloudy with Strong Thunderstorms 63 17.2 50 10 63 63 WNW 31 50 29.85 1011 2 2 0.02 0.51
1:20 pm 13:20 Cloudy with Strong Thunderstorms 62 16.7 46 7.8 56 56 WNW 17 28 29.85 1011 1 1 0.22 5.59
1:23 pm 13:23 Cloudy with Strong Thunderstorms 61 16.1 47 8.3 60 60 NW 13 20 29.88 1012 1 2 0.27 6.86
1:36 pm 13:36 Cloudy with Thunderstorms 62 16.7 50 10 65 65 NE 7 11 29.85 1011 3 5 0.35 8.89
1:51 pm 13:51 Cloudy with Nearby Thunderstorms 63 17.2 51 10.6 65 65 ENE 10 17 29.86 1011 10 16 0.35 8.89
2:13 pm 14:13 Cloudy with Light Rain 64 17.8 49 9.4 58 58 N 8 13 29.85 1011 10 16 0.00 0.03
2:51 pm 14:51 Cloudy with Light Rain 67 19.4 48 8.9 51 51 N 5 7 29.87 1011 10 16 0.00 0.03
3:51 pm 15:51 Mostly Cloudy 68 20 48 8.9 49 49 NNE 14 22 29.85 1011 10 16 0.00 0.03
4:51 pm 16:51 Sunny 69 20.6 45 7.2 42 42 ENE 8 13 29.85 1011 10 16 0.00 0.00
5:51 pm 17:51 Sunny 69 20.6 46 7.8 44 44 W 7 11 29.83 1010 10 16 0.00 0.00
6:51 pm 18:51 Sunny 67 19.4 49 9.4 53 53 VRB 3 6 29.84 1011 10 16 0.00 0.00
7:51 pm 19:51 Partly Cloudy 64 17.8 50 10 60 60 Calm 29.87 1012 10 16 0.00 0.00
8:51 pm 20:51 Clear 61 16.1 48 8.9 63 63 S 3 6 29.89 1012 10 16 0.00 0.00
9:51 pm 21:51 Clear 60 15.6 50 10 70 70 E 3 6 29.90 1013 10 16 0.00 0.00
10:51 pm 22:51 Mostly Clear 59 15 49 9.4 69 69 E 8 13 29.90 1013 10 16 0.00 0.00
11:51 pm 23:51 Clear 59 15 48 8.9 67 67 E 10 17 29.89 1012 10 16 0.00 0.00

Powered by AerisWeather